Probability
0 0 0 0 0 0 0 0 0 0 0 0 0 0 0 0 0 0 0 0 0 0 0 0 0 0 0 0 0 0 0 0 0 0 0 0 0 0 0 0 0 0 0
0 0 0 0 0 0 0 0 0 0 0 0 0 0 0 0 0 0 0 0 0 0 0 0 0 0 0 0 0 0 0 0 0 0 0 0 0 0 0 0 0 0 0
0 0 0 0 0 0 0 0 0 0 0 0 0 0 0 0 0 0 0 0 0 0 0 0 0 0 0 0 0 0 0 0 0 0 0 0 0 0 0 0 0 0 0
0 0 0 0 0 0 0 0 0 0 0 0 0 0 0 0 0 0 0 0 0 0 0 0 0 0 0 0 0 0 0 0 0 0 0 0 0 0 0 0 0 0 0
0 0 0 0 0 0 0 0 0 0 0 0 0 0 0 0 0 0 0 0 0 0 0 0 0 0 0 0 0 0 0 0 0 0 0 0 0 0 0 0 0 0 0
0 0 0 0 0 0 0 0 0 0 0 0 0 0 0 0 0 0 0 0 0 0 0 0 0 0 0 0 0 0 0 0 0 0 0 0 0 0 0 0 0 0 0
0 0 0 0 0 0 0 0 0 0 0 0 0 0 0 0 0 0 0 0 0 0 0 0 0 0 0 0 0 0 0 0 0 0 0 0 0 0 0 0 0 0 0
0 0 0 0 0 0 0 0 0 0 0 0 0 0 0 0 0 0 0 0 0 0 0 0 0 0 0 0 0 0 0 0 0 0 0 0 0 0 0 0 0 0 0
0 0 0 0 0 0 0 0 0 0 0 0 0 0 0 0 0 0 0 0 0 0 0 0 0 0 0 0 0 0 0 0 0 0 0 0 0 0 0 0 0 0 0
0 0 0 0 0 0 0 0 0 0 0 0 0 0 0 0 0 0 0 0 0 0 0 0 0 0 0 0 0 0 0 0 0 0 0 0 0 0 0 0 0 0 0
0 0 0 0 0 0 0 0 0 0 0 0 0 0 0 0 0 0 0 0 0 0 0 0 0 0 0 0 0 0 0 0 0 0 0 0 0 0 0 0 0 0 0
0 0 0 0 0 0 0 0 0 0 0 0 0 0 0 0 0 0 0 0 0 0 0 0 0 0 0 0 0 0 0 0 0 0 0 0 0 0 0 0 0 0 0
0 0 0 0 0 0 0 0 0 0 0 0 0 0 0 0 0 0 0 0 0 0 0 0 0 0 0 0 0 0 0 0 0 0 0 0 0 0 0 0 0 0 0
0 0 0 0 0 0 0 0 0 0 0 0 0 0 0 0 0 0 0 0 0 0 0 0 0 0 0 0 0 0 0 0 0 0 0 0 0 0 0 0 0 0 0
0 0 0 0 0 0 0 0 0 0 0 0 0 0 0 0 0 0 0 0 0 0 0 0 0 0 0 0 0 0 0 0 0 0 0 0 0 0 0 0 0 0 0
0 0 0 0 0 0 0 0 0 0 0 0 0 0 0 0 0 0 0 0 0 0 0 0 0 0 0 0 0 0 0 0 0 0 0 0 0 0 0 0 0 0 0
0 0 0 0 0 0 0 0 0 0 0 0 0 0 0 0 0 0 0 0 0 0 0 0 0 0 0 0 0 0 0 0 0 0 0 0 0 0 0 0 0 0 0
0 0 0 0 0 0 0 0 0 0 0 0 0 0 0 0 0 0 0 0 0 0 0 0 0 0 0 0 0 0 0 0 0 0 0 0 0 0 0 0 0 0 0
0 0 0 0 0 0 0 0 0 0 0 0 0 0 0 0 0 0 0 0 0 0 0 0 0 0 0 0 0 0 0 0 0 0 0 0 0 0 0 0 0 0 0
0 0 0 0 0 0 0 0 0 0 0 0 0 0 0 0 0 0 0 0 0 0 0 0 0 0 0 0 0 0 0 0 0 0 0 0 0 0 0 0 0 0 0
0 0 0 0 0 0 0 0 0 0 0 0 0 0 0 0 0 0 0 0 0 0 0 0 0 0 0 0 0 0 0 0 0 0 0 0 0 0 0 0 0 0 0
0 0 0 0 0 0 0 0 0 0 0 0 0 0 0 0 0 0 0 0 0 0 0 0 0 0 0 0 0 0 0 0 0 0 0 0 0 0 0 0 0 0 0
0 0 0 0 0 0 0 0 0 0 0 0 0 0 0 0 0 0 0 0 0 0 0 0 0 0 0 0 0 0 0 0 0 0 0 0 0 0 0 0 0 0 0
0 0 0 0 0 0 0 0 0 0 0 0 0 0 0 0 0 0 0 0 0 0 0 0 0 0 0 0 0 0 0 0 0 0 0 0 0 0 0 0 0 0 0
0 0 0 0 0 0 0 0 0 0 0 0 0 0 0 0 0 0 0 0 0 0 0 0 0 0 0 0 0 0 0 0 0 0 0 0 0 0 0 0 0 0 0
0 0 0 0 0 0 0 0 0 0 0 0 0 0 0 0 0 0 0 0 0 0 0 0 0 0 0 0 0 0 0 0 0 0 0 0 0 0 0 0 0 0 0
Wind_Speed
6 5 4 4 5 5 5 6 6 5 6 7 7 8 8 7 7 7 8 10 9 9 9 9 10 10 9 8 9 9 8 8 11 11 9 10 12 12 11 9 10 10 11
6 5 4 5 5 5 6 6 5 6 6 7 7 8 8 9 8 8 10 11 10 11 10 10 11 10 11 10 9 10 9 8 9 14 11 10 12 12 11 10 11 11 10
6 5 5 5 5 5 5 5 6 6 7 7 7 8 8 8 9 9 10 11 12 12 11 11 11 10 11 10 11 10 9 9 7 10 11 9 9 9 10 10 11 9 11
6 6 5 5 5 4 5 6 6 7 7 7 8 8 8 9 10 11 12 13 13 12 12 11 10 10 12 11 10 10 10 9 8 8 10 9 8 8 8 9 10 9 10
7 6 5 4 3 4 5 7 7 8 9 8 8 8 8 9 10 13 12 12 11 11 11 10 10 15 18 15 12 11 10 7 8 9 9 9 8 8 8 8 10 11 11
7 6 5 4 4 5 6 7 8 8 8 8 8 8 10 11 21 27 20 10 10 9 9 8 10 12 16 21 24 23 19 12 10 9 8 9 9 8 8 9 9 10 8
7 6 5 5 5 6 7 7 8 8 8 8 7 8 10 14 25 26 26 13 9 8 8 7 8 10 13 9 15 18 16 21 20 13 10 9 10 9 10 11 9 10 10
8 7 6 6 6 6 6 7 8 8 8 7 7 8 10 14 24 25 25 10 7 7 7 7 8 7 10 13 9 8 8 10 14 10 9 10 10 10 10 10 10 11 12
9 8 7 7 6 6 7 8 8 7 7 6 7 8 9 12 21 24 22 6 6 7 6 7 8 7 17 22 11 9 11 10 14 19 20 17 19 17 13 7 6 7 8
10 9 8 7 7 7 8 7 6 6 6 6 7 7 8 9 18 23 22 5 6 6 6 6 12 15 19 20 9 8 12 11 10 11 12 14 11 12 15 7 5 6 6
9 8 8 7 7 7 6 5 6 6 6 6 7 7 7 10 16 21 22 8 7 6 7 6 7 19 20 20 16 9 14 14 10 10 9 8 7 6 6 6 6 7 7
9 8 7 6 6 5 5 5 5 5 5 5 6 7 5 7 13 17 22 19 16 6 7 7 9 19 19 19 14 17 21 16 9 9 8 8 8 7 7 7 8 9 10
10 9 7 7 6 5 5 5 4 3 3 4 4 6 6 5 9 18 20 20 20 10 7 16 18 20 17 12 17 21 16 9 9 9 9 9 9 9 9 8 7 8 9
11 9 7 7 5 5 4 4 3 3 3 3 4 5 6 6 6 7 7 8 12 10 8 12 17 17 14 14 14 11 8 9 10 9 10 9 9 9 8 8 7 7 5
11 9 8 7 5 4 4 4 4 4 4 4 3 3 5 6 10 18 12 8 7 8 8 5 5 6 6 6 7 7 7 9 10 10 10 10 10 10 9 9 7 6 4
12 10 7 6 5 4 3 3 6 6 8 9 8 7 6 11 17 17 17 17 16 16 10 7 7 8 8 8 8 8 7 9 9 10 10 10 10 10 10 9 8 7 6
12 11 8 7 6 5 4 3 3 4 5 7 7 8 9 12 14 15 16 16 14 14 6 6 7 8 7 7 7 6 6 8 7 8 9 10 10 10 10 10 10 9 8
13 14 11 8 7 6 5 4 3 3 2 3 4 7 9 12 13 12 14 11 8 8 5 6 7 7 7 7 7 6 6 6 7 7 8 9 9 10 10 11 10 11 9
13 10 9 8 7 6 5 4 3 3 3 3 2 3 7 10 11 11 10 4 5 6 7 7 7 7 7 7 6 6 5 5 7 7 7 8 9 9 9 10 10 15 10
12 17 14 9 8 7 5 5 4 3 3 2 2 2 2 4 3 4 4 4 4 5 7 7 7 7 7 7 6 5 5 5 6 6 7 8 8 8 9 11 11 10 9
11 14 19 11 8 8 6 6 5 4 3 3 2 3 4 1 3 4 4 4 4 5 6 7 7 7 6 6 5 5 5 4 5 6 6 7 8 8 8 9 9 9 9
12 11 10 10 9 8 7 6 5 5 4 4 3 2 4 1 2 3 3 4 4 4 5 6 6 6 6 6 6 5 4 4 4 5 6 6 7 8 8 8 9 9 9
12 13 12 10 9 12 9 7 6 5 4 4 3 2 1 1 2 2 3 3 4 5 5 6 7 6 5 5 5 3 3 3 3 3 5 6 7 7 7 8 9 10 10
13 14 13 11 10 9 8 8 7 6 5 4 4 3 2 2 2 3 2 3 4 5 5 6 7 8 10 8 5 3 2 1 2 3 4 5 6 7 7 7 8 10 9
14 13 13 12 11 10 9 9 8 7 6 5 4 3 3 2 2 2 2 2 4 5 7 7 6 7 10 10 7 3 3 4 5 4 4 4 6 6 7 7 7 8 8
14 14 13 11 11 10 10 9 9 8 7 6 5 4 3 3 2 2 2 2 3 5 6 6 8 10 10 8 6 4 3 4 6 8 5 4 5 6 6 6 8 8 8
Wind_Direction
198 211 230 245 253 261 264 268 275 281 287 289 292 294 295 294 293 292 291 295 292 293 295 298 299 302 302 306 305 305 305 303 301 305 304 305 305 304 302 299 295 287 282
192 199 226 245 254 258 264 273 281 285 285 286 290 294 296 298 291 287 290 294 289 289 289 291 293 300 300 300 300 303 301 300 303 308 309 308 305 304 302 304 302 294 284
182 198 227 244 253 262 275 285 289 287 286 288 291 292 291 291 288 282 279 280 280 278 278 282 284 290 293 294 297 299 299 304 300 300 305 306 306 309 314 311 307 298 290
181 198 224 241 256 275 290 293 289 286 287 285 283 284 287 289 286 280 275 272 272 269 269 272 276 281 283 287 297 302 305 304 301 300 302 305 307 313 320 321 317 312 302
181 200 220 240 272 287 286 284 283 282 286 281 281 284 287 289 285 280 274 274 271 268 268 268 274 290 302 309 314 311 310 307 308 303 302 305 308 317 318 317 312 312 301
181 198 208 228 252 265 272 276 279 280 280 281 280 283 289 293 298 303 310 303 293 283 279 273 278 292 302 317 318 319 325 320 311 304 302 302 302 303 304 305 308 311 306
182 194 202 219 245 259 273 280 282 284 284 282 281 282 286 291 302 309 318 327 312 296 287 284 294 301 314 298 308 322 322 320 317 310 302 294 291 290 291 293 292 293 284
184 194 200 213 237 254 266 273 277 278 278 280 282 283 286 295 310 316 326 332 310 298 290 285 287 291 301 310 317 316 305 304 307 308 292 287 286 281 272 276 284 289 283
190 195 197 206 227 246 258 265 270 276 283 284 285 287 290 301 314 321 335 323 314 310 304 306 313 301 311 327 334 320 315 309 320 323 321 317 315 313 308 296 291 294 293
193 192 191 198 217 237 251 262 272 283 286 292 296 296 298 301 317 328 338 327 318 321 320 322 327 324 327 335 335 322 318 323 330 324 320 316 311 305 309 300 282 279 282
180 181 187 197 216 236 252 265 279 286 294 301 304 303 304 314 327 331 339 344 338 336 333 327 315 328 338 341 342 327 331 344 334 321 318 314 309 299 291 277 261 256 257
170 176 186 199 220 236 248 263 271 286 301 305 307 308 308 319 328 330 341 346 351 344 332 321 319 338 347 347 344 341 349 349 332 328 328 327 324 318 306 292 275 258 246
168 178 187 200 215 225 238 254 271 284 289 297 307 313 319 322 323 332 338 343 346 346 332 339 344 349 350 344 343 350 351 341 337 338 335 332 326 317 311 305 293 280 264
173 180 186 195 209 223 233 235 241 259 279 294 305 312 316 318 313 314 320 329 338 335 331 336 343 345 348 346 348 347 343 343 347 339 334 331 329 329 328 327 323 320 309
175 181 185 188 195 215 229 229 235 223 234 263 260 280 305 310 314 330 339 335 333 335 347 336 330 333 340 339 341 343 343 345 348 343 342 341 341 341 340 339 333 334 332
178 183 184 182 188 200 216 252 274 259 264 278 284 293 303 310 321 334 338 342 345 353 359 340 339 339 341 342 342 341 342 347 347 346 346 346 346 344 344 343 347 345 342
179 178 179 181 183 191 197 207 248 291 292 287 284 298 310 320 328 334 340 347 352 360 357 337 335 334 334 335 334 334 335 338 340 344 347 347 347 348 349 350 351 351 347
178 180 179 178 179 184 189 193 202 226 272 291 302 310 322 330 333 338 348 354 348 352 343 336 334 332 331 331 332 331 331 336 342 345 346 348 349 350 352 353 352 352 347
177 178 177 171 174 179 181 183 196 216 233 258 283 313 338 338 339 347 355 352 336 339 339 335 332 330 329 328 327 327 329 334 341 343 345 347 350 351 353 352 350 351 354
180 183 175 173 175 177 179 183 193 204 220 244 267 269 319 335 329 333 339 330 334 333 333 331 328 326 326 325 325 327 330 336 343 347 346 347 348 351 353 352 351 350 349
174 181 179 177 177 178 179 183 187 189 202 222 239 254 303 311 303 311 320 325 328 326 325 324 321 322 322 323 325 330 334 338 345 348 348 348 349 352 351 351 350 350 349
171 173 175 175 174 177 180 181 180 184 196 212 229 256 304 306 290 303 309 314 315 312 313 316 316 317 321 326 327 331 336 341 347 350 348 348 349 351 352 353 354 353 355
171 170 173 174 173 184 186 181 180 182 190 200 206 213 228 240 278 294 303 312 316 315 315 316 317 319 322 324 324 327 333 341 345 352 352 350 351 352 353 354 355 357 357
173 171 172 172 174 179 180 180 182 183 184 190 195 200 203 214 254 284 300 311 320 319 319 319 318 321 325 329 328 328 327 3 11 8 4 358 356 353 352 354 356 357 359
175 172 172 173 175 178 180 182 183 182 182 186 188 189 190 204 235 269 298 313 324 322 323 323 322 324 324 326 328 330 359 39 50 47 19 10 3 360 359 359 359 359 5
177 174 172 171 173 176 179 181 181 179 180 182 180 179 184 195 216 243 278 309 324 321 322 322 321 322 321 324 327 348 38 63 66 54 44 21 12 12 11 6 5 11 12